Regional Weather Roundup
Issued by NWS

Home | Current Version | Previous Version | Graphics & Text | Print | Product List | Glossary On
Versions: 1 2 3 4 5 6 7 8 9 10 11 12 13 14 15 16 17 18 19 20 21 22 23 24 25 26 27 28 29 30 31 32 33 34 35 36 37 38 39 40 41 42 43 44 45 46 47 48 49 50
000
ASUS43 KBIS 021910
RWRND

NORTH DAKOTA REGIONAL WEATHER ROUNDUP
NATIONAL WEATHER SERVICE BISMARCK ND
200 PM CDT WED SEP 02 2015

NOTE: "FAIR" INDICATES FEW OR NO CLOUDS BELOW 12,000 FEET WITH NO
SIGNIFICANT WEATHER AND/OR OBSTRUCTIONS TO VISIBILITY.


NDZ001>003-009>011-017-022000-
NORTHWEST NORTH DAKOTA

CITY           SKY/WX    TMP DP  RH WIND       PRES   REMARKS
WILLISTON      SUNNY     93  53  25 S17G25    29.70F HX  90
MINOT          SUNNY     91  63  39 S12       29.73F HX  92
MINOT AFB      MOSUNNY   92  67  43 SE13      29.72F HX  95
$$

NDZ018>021-031>035-040>046-022000-
SOUTHWEST NORTH DAKOTA

CITY           SKY/WX    TMP DP  RH WIND       PRES   REMARKS
BISMARCK       SUNNY     85  69  58 SE8       29.76F
DICKINSON      SUNNY     95  47  19 S17       29.75F HX  91
GARRISON         N/A     89  64  43 S9        29.75F HX  90
HETTINGER ARPT SUNNY     93  48  21 S12       29.79F
$$

NDZ004>008-012>016-024-026-027-054-022000-
NORTHEAST NORTH DAKOTA

CITY           SKY/WX    TMP DP  RH WIND       PRES   REMARKS
GRAND FORKS    SUNNY     86  66  51 S15G22    29.80F
GRND FRKS AFB  SUNNY     85  68  57 S9        29.81F
DEVILS LAKE    SUNNY     86  66  51 SE14      29.77F
$$

NDZ022-023-025-028>030-036>039-047>053-022000-
SOUTHEAST NORTH DAKOTA

CITY           SKY/WX    TMP DP  RH WIND       PRES   REMARKS
FARGO          SUNNY     88  66  48 SE14      29.82S HX  90
JAMESTOWN      SUNNY     87  69  54 SE14      29.78F HX  91
$$




USA.gov is the U.S. government's official web portal to all federal, state and local government web resources and services.